Regional Weather Roundup
Issued by NWS Bismarck, ND

Home | Current Version | Previous Version | Text Only | Print | Product List | Glossary On
Versions: 1 2 3 4 5 6 7 8 9 10 11 12 13 14 15 16 17 18 19 20 21 22 23 24 25 26 27 28 29 30 31 32 33 34 35 36 37 38 39 40 41 42 43 44 45 46 47 48 49 50
936
ASUS43 KBIS 282202
RWRBIS

NWR BROADCAST TEXT
NATIONAL WEATHER SERVICE BISMARCK ND
500 PM CDT TUE MAR 28 2017

NOTE: "FAIR" INDICATES FEW OR NO CLOUDS BELOW 12,000 FEET WITH NO
SIGNIFICANT WEATHER AND/OR OBSTRUCTIONS TO VISIBILITY.


CITY           SKY/WX    TMP DP  RH WIND       PRES   REMARKS
WILLISTON      PTSUNNY   56  40  55 W9        30.05S
MINOT          FAIR      52  42  69 E16       30.08F
MINOT AFB      FAIR      46  41  85 E9        30.08F
BISMARCK       FAIR      63  36  36 SE12      30.08S
DICKINSON      PTSUNNY   60  27  28 S10G18    30.01F
GARRISON         N/A     58  35  42 S10       30.06F
HETTINGER ARPT FAIR      57  42  57 SE13      30.05R
JAMESTOWN      FAIR      54  41  61 E8        30.12F
HAZEN          FAIR      61  36  39 S13       30.08S
LINTON         FAIR      57  45  62 SE12      30.10S
MANDAN         FAIR      59  36  41 SE12      30.08R
STANLEY        FAIR      52  45  76 S10       30.08F
TIOGA          FAIR      54  43  66 SE6G13    30.06F
WATFORD CITY   DRIZZLE   55  41  58 W12       30.03S
$$

CITY           SKY/WX    TMP DP  RH WIND       PRES   REMARKS
GRAND FORKS    CLOUDY    54  43  66 NE9       30.17F
GRAND FORKS AF FAIR      52  42  67 NE8       30.18F
DEVILS LAKE    FAIR      51  40  65 SE12      30.15F
FARGO          FAIR      58  41  53 NE8       30.14F
CAVALIER       FAIR      43  36  75 N8        30.21S
GRAFTON        FAIR      46  41  81 N7        30.22S
GWINNER        CLEAR     59  39  47 MISG      30.12F
LANGDON        FAIR      43  37  81 E13       30.18F
ROLLA          FAIR      41  41 100 E7        30.16S
$$

CITY           SKY/WX    TMP DP  RH WIND       PRES   REMARKS
ABERDEEN       FAIR      59  34  39 E9        30.10R
MOBRIDGE       CLOUDY    59  36  42 SE12      30.05S
BUFFALO          N/A     50  42  74 NW8       29.98S
RAPID CITY     CLOUDY    45  41  86 CALM      30.05R
GLASGOW        FAIR      60  26  27 W9G20     30.03F
SIDNEY         CLOUDY    47  39  74 NW13      30.09R
WOLF POINT     FAIR      51  38  60 VRB3      30.08S
GLENDIVE       CLOUDY    49  43  80 NW16      30.08S
MILES CITY     CLOUDY    52  37  56 NW9       30.08S
BAKER          PTSUNNY   56  37  49 W14       30.04S
$$

CITY           SKY/WX    TMP DP  RH WIND       PRES   REMARKS
BILLINGS       FAIR      55  23  28 NW8       30.07F
GREAT FALLS    FAIR      51  20  29 SW13G25   30.05F
$$





USA.gov is the U.S. government's official web portal to all federal, state and local government web resources and services.